VISION2 KMEM-KLIT

Flight info

Callsign VISION2
Flight time 0h 37m
Altitude 18000
Route CHLDR5 ANSWA
Aircraft SF50/L-BGS/L

Departure

Time 2026-04-23 23:53
Airport Memphis International Airport (KMEM)

Arrival

Time 2026-04-24 00:30
Airport Bill & Hillary Clinton National Airport/Adams Field (KLIT)
Time Latitude Longitude Altitude Speed Heading
2026-04-23 23:40 35.05465 -89.98065 300 ft 0 kts 74°
2026-04-23 23:48 35.05465 -89.98060 300 ft 2 kts 99°
2026-04-23 23:48 35.05474 -89.98001 306 ft 13 kts 72°
2026-04-23 23:48 35.05486 -89.97874 315 ft 14 kts 95°
2026-04-23 23:49 35.05448 -89.97757 319 ft 3 kts 105°
2026-04-23 23:49 35.05447 -89.97752 319 ft 0 kts 101°
2026-04-23 23:51 35.05446 -89.97745 320 ft 6 kts 96°
2026-04-23 23:52 35.05423 -89.97632 321 ft 15 kts 146°
2026-04-23 23:52 35.05329 -89.97615 319 ft 15 kts 179°
2026-04-23 23:52 35.05084 -89.97609 310 ft 73 kts 180°
2026-04-23 23:52 35.04406 -89.97598 624 ft 110 kts 181°
2026-04-23 23:53 35.03578 -89.97540 1137 ft 126 kts 174°
2026-04-23 23:53 35.02621 -89.97482 1687 ft 153 kts 178°
2026-04-23 23:53 35.01533 -89.97403 2548 ft 161 kts 179°
2026-04-23 23:53 35.00404 -89.97377 3536 ft 162 kts 180°
2026-04-23 23:54 34.99342 -89.97730 4556 ft 161 kts 209°
2026-04-23 23:54 34.98398 -89.98463 5472 ft 158 kts 209°
2026-04-23 23:54 34.97423 -89.99085 6061 ft 160 kts 207°
2026-04-23 23:54 34.96414 -89.99690 6613 ft 163 kts 206°
2026-04-23 23:55 34.95405 -90.00368 7061 ft 169 kts 219°
2026-04-23 23:55 34.94772 -90.01604 7517 ft 176 kts 250°
2026-04-23 23:55 34.94600 -90.03047 8225 ft 170 kts 263°
2026-04-23 23:55 34.94541 -90.04489 8694 ft 176 kts 264°
2026-04-23 23:56 34.94490 -90.05992 9233 ft 177 kts 265°
2026-04-23 23:56 34.94411 -90.07465 9866 ft 174 kts 264°
2026-04-23 23:56 34.94322 -90.08979 10242 ft 183 kts 265°
2026-04-23 23:56 34.94252 -90.10519 10779 ft 180 kts 266°
2026-04-23 23:57 34.94158 -90.12038 11303 ft 179 kts 262°
2026-04-23 23:57 34.93983 -90.13546 11789 ft 181 kts 263°
2026-04-23 23:57 34.93862 -90.15088 12293 ft 185 kts 265°
2026-04-23 23:57 34.93763 -90.16661 12787 ft 187 kts 266°
2026-04-23 23:58 34.93662 -90.18235 13301 ft 189 kts 266°
2026-04-23 23:58 34.93553 -90.19834 13807 ft 190 kts 266°
2026-04-23 23:58 34.93444 -90.21441 14268 ft 190 kts 266°
2026-04-23 23:58 34.93335 -90.23049 14733 ft 191 kts 266°
2026-04-23 23:59 34.93245 -90.24659 15207 ft 191 kts 267°
2026-04-23 23:59 34.93160 -90.26273 15689 ft 191 kts 267°
2026-04-23 23:59 34.93067 -90.27880 16181 ft 190 kts 267°
2026-04-23 23:59 34.92977 -90.29482 16660 ft 190 kts 267°
2026-04-24 00:00 34.92885 -90.31121 17010 ft 197 kts 267°
2026-04-24 00:00 34.92790 -90.32804 17375 ft 201 kts 268°
2026-04-24 00:00 34.92693 -90.34523 17742 ft 205 kts 267°
2026-04-24 00:00 34.92593 -90.36288 17925 ft 217 kts 268°
2026-04-24 00:01 34.92486 -90.38187 17927 ft 231 kts 267°
2026-04-24 00:01 34.92371 -90.40181 17926 ft 240 kts 267°
2026-04-24 00:01 34.92250 -90.42236 17927 ft 246 kts 267°
2026-04-24 00:01 34.92129 -90.44332 17925 ft 250 kts 267°
2026-04-24 00:02 34.92006 -90.46464 17924 ft 254 kts 267°
2026-04-24 00:02 34.91880 -90.48620 17924 ft 257 kts 267°
2026-04-24 00:02 34.91754 -90.50798 17922 ft 259 kts 267°
2026-04-24 00:02 34.91627 -90.52975 17923 ft 261 kts 267°
2026-04-24 00:03 34.91498 -90.55189 17925 ft 263 kts 267°
2026-04-24 00:03 34.91367 -90.57415 17917 ft 265 kts 267°
2026-04-24 00:03 34.91235 -90.59653 17919 ft 265 kts 267°
2026-04-24 00:03 34.91102 -90.61897 17918 ft 266 kts 267°
2026-04-24 00:04 34.90968 -90.64153 17913 ft 267 kts 266°
2026-04-24 00:04 34.90834 -90.66413 17913 ft 267 kts 266°
2026-04-24 00:04 34.90698 -90.68676 17915 ft 268 kts 266°
2026-04-24 00:04 34.90562 -90.70944 17915 ft 269 kts 267°
2026-04-24 00:05 34.90403 -90.73257 17915 ft 278 kts 263°
2026-04-24 00:05 34.90040 -90.75606 17916 ft 285 kts 260°
2026-04-24 00:05 34.89668 -90.78006 17918 ft 291 kts 261°
2026-04-24 00:05 34.89307 -90.80421 17918 ft 295 kts 261°
2026-04-24 00:06 34.88933 -90.82894 17919 ft 298 kts 261°
2026-04-24 00:06 34.88550 -90.85389 17918 ft 301 kts 261°
2026-04-24 00:06 34.88166 -90.87902 17917 ft 302 kts 261°
2026-04-24 00:06 34.87779 -90.90427 17919 ft 303 kts 261°
2026-04-24 00:07 34.87391 -90.92954 17921 ft 304 kts 261°
2026-04-24 00:07 34.86999 -90.95490 17823 ft 303 kts 260°
2026-04-24 00:07 34.86608 -90.98006 17665 ft 301 kts 261°
2026-04-24 00:07 34.86353 -90.99666 17560 ft 300 kts 261°
2026-04-24 00:08 34.85970 -91.02167 17313 ft 301 kts 261°
2026-04-24 00:08 34.85583 -91.04680 17056 ft 302 kts 261°
2026-04-24 00:08 34.85067 -91.08018 16718 ft 303 kts 261°
2026-04-24 00:08 34.84803 -91.09728 16549 ft 304 kts 261°
2026-04-24 00:09 34.84417 -91.12228 16298 ft 303 kts 261°
2026-04-24 00:09 34.84028 -91.14724 16050 ft 296 kts 261°
2026-04-24 00:09 34.83646 -91.17174 15801 ft 293 kts 261°
2026-04-24 00:09 34.83270 -91.19596 15555 ft 290 kts 261°
2026-04-24 00:10 34.82895 -91.22008 15312 ft 290 kts 260°
2026-04-24 00:10 34.82519 -91.24413 15073 ft 289 kts 260°
2026-04-24 00:10 34.82144 -91.26812 14834 ft 287 kts 261°
2026-04-24 00:10 34.81771 -91.29202 14595 ft 287 kts 260°
2026-04-24 00:11 34.81398 -91.31586 14360 ft 287 kts 260°
2026-04-24 00:11 34.81024 -91.33967 14125 ft 286 kts 261°
2026-04-24 00:11 34.80655 -91.36315 13894 ft 286 kts 260°
2026-04-24 00:11 34.80279 -91.38719 13656 ft 285 kts 261°
2026-04-24 00:12 34.79911 -91.41052 13399 ft 284 kts 261°
2026-04-24 00:12 34.79642 -91.43413 13122 ft 279 kts 272°
2026-04-24 00:12 34.80174 -91.45647 12847 ft 275 kts 295°
2026-04-24 00:12 34.81081 -91.47684 12593 ft 273 kts 299°
2026-04-24 00:13 34.82037 -91.49669 12344 ft 271 kts 300°
2026-04-24 00:13 34.83000 -91.51633 12092 ft 270 kts 300°
2026-04-24 00:13 34.83962 -91.53592 11841 ft 269 kts 300°
2026-04-24 00:13 34.84933 -91.55532 11598 ft 267 kts 300°
2026-04-24 00:14 34.85902 -91.57465 11352 ft 266 kts 300°
2026-04-24 00:14 34.86871 -91.59385 11110 ft 266 kts 300°
2026-04-24 00:14 34.87835 -91.61307 10854 ft 266 kts 300°
2026-04-24 00:14 34.88792 -91.63241 10613 ft 266 kts 299°
2026-04-24 00:15 34.89735 -91.65148 10396 ft 265 kts 300°
2026-04-24 00:15 34.90684 -91.67090 10104 ft 268 kts 299°
2026-04-24 00:15 34.91641 -91.69038 9758 ft 266 kts 300°
2026-04-24 00:15 34.92624 -91.70935 9405 ft 264 kts 300°
2026-04-24 00:16 34.93594 -91.72838 8993 ft 265 kts 299°
2026-04-24 00:16 34.94583 -91.74736 8639 ft 264 kts 299°
2026-04-24 00:16 34.95577 -91.76616 8353 ft 263 kts 300°
2026-04-24 00:16 34.96552 -91.78508 8047 ft 264 kts 299°
2026-04-24 00:17 34.97549 -91.80389 7759 ft 264 kts 300°
2026-04-24 00:17 34.98543 -91.82231 7540 ft 262 kts 299°
2026-04-24 00:17 34.99538 -91.84103 7239 ft 262 kts 298°
2026-04-24 00:17 35.00526 -91.85946 6935 ft 258 kts 299°
2026-04-24 00:18 35.01536 -91.87759 6633 ft 257 kts 300°
2026-04-24 00:18 35.02541 -91.89545 6416 ft 254 kts 299°
2026-04-24 00:18 35.03513 -91.91336 6194 ft 253 kts 298°
2026-04-24 00:18 35.04517 -91.93137 5883 ft 260 kts 300°
2026-04-24 00:19 35.05594 -91.94959 5566 ft 267 kts 301°
2026-04-24 00:19 35.06684 -91.96792 5240 ft 265 kts 301°
2026-04-24 00:19 35.07725 -91.98600 5049 ft 259 kts 298°
2026-04-24 00:19 35.08717 -92.00399 5047 ft 249 kts 292°
2026-04-24 00:20 35.09102 -92.02393 5040 ft 239 kts 268°
2026-04-24 00:20 35.09245 -92.04431 5049 ft 244 kts 270°
2026-04-24 00:20 35.09400 -92.06512 5076 ft 246 kts 269°
2026-04-24 00:20 35.09507 -92.08567 5086 ft 235 kts 263°
2026-04-24 00:21 35.09148 -92.10439 5061 ft 223 kts 239°
2026-04-24 00:21 35.08192 -92.11831 5067 ft 209 kts 215°
2026-04-24 00:21 35.06980 -92.12770 5058 ft 204 kts 209°
2026-04-24 00:21 35.05760 -92.13660 5113 ft 203 kts 208°
2026-04-24 00:22 35.04535 -92.14553 5090 ft 206 kts 209°
2026-04-24 00:22 35.03293 -92.15442 5085 ft 206 kts 208°
2026-04-24 00:22 35.02086 -92.16349 5087 ft 203 kts 210°
2026-04-24 00:22 35.00887 -92.17245 5052 ft 207 kts 209°
2026-04-24 00:23 34.99660 -92.18151 4982 ft 203 kts 209°
2026-04-24 00:23 34.98470 -92.19067 4837 ft 201 kts 210°
2026-04-24 00:23 34.97289 -92.19959 4667 ft 200 kts 210°
2026-04-24 00:23 34.96097 -92.20872 4442 ft 204 kts 210°
2026-04-24 00:24 34.94887 -92.21773 4267 ft 201 kts 209°
2026-04-24 00:24 34.93720 -92.22623 4131 ft 194 kts 209°
2026-04-24 00:24 34.92594 -92.23178 4057 ft 186 kts 189°
2026-04-24 00:24 34.91345 -92.23195 4014 ft 177 kts 178°
2026-04-24 00:25 34.90139 -92.23179 4034 ft 169 kts 181°
2026-04-24 00:25 34.88977 -92.23151 4053 ft 167 kts 180°
2026-04-24 00:25 34.87816 -92.23133 4041 ft 167 kts 181°
2026-04-24 00:25 34.86666 -92.23111 4034 ft 166 kts 179°
2026-04-24 00:26 34.85514 -92.23067 4014 ft 165 kts 179°
2026-04-24 00:26 34.84371 -92.23045 3962 ft 162 kts 182°
2026-04-24 00:26 34.83294 -92.23102 3875 ft 147 kts 183°
2026-04-24 00:26 34.82304 -92.23136 3675 ft 137 kts 182°
2026-04-24 00:27 34.81470 -92.23184 3432 ft 101 kts 171°
2026-04-24 00:27 34.80844 -92.23261 3039 ft 83 kts 173°
2026-04-24 00:27 34.80305 -92.23376 2639 ft 76 kts 174°
2026-04-24 00:27 34.79797 -92.23519 2267 ft 74 kts 178°
2026-04-24 00:28 34.79286 -92.23647 2030 ft 74 kts 186°
2026-04-24 00:28 34.78769 -92.23687 1825 ft 80 kts 180°
2026-04-24 00:28 34.78197 -92.23685 1621 ft 83 kts 180°
2026-04-24 00:28 34.77642 -92.23684 1444 ft 80 kts 181°
2026-04-24 00:29 34.77074 -92.23686 1241 ft 82 kts 182°
2026-04-24 00:29 34.76507 -92.23716 1097 ft 82 kts 182°
2026-04-24 00:29 34.75921 -92.23740 865 ft 85 kts 184°
2026-04-24 00:29 34.75358 -92.23762 660 ft 81 kts 185°
2026-04-24 00:30 34.74790 -92.23774 514 ft 82 kts 186°
2026-04-24 00:30 34.74222 -92.23810 339 ft 82 kts 182°
2026-04-24 00:30 34.73695 -92.23818 262 ft 64 kts 183°
2026-04-24 00:30 34.73334 -92.23833 261 ft 41 kts 182°
2026-04-24 00:31 34.73143 -92.23844 263 ft 17 kts 198°
2026-04-24 00:31 34.73103 -92.23942 262 ft 12 kts 289°
2026-04-24 00:31 34.73172 -92.23970 261 ft 9 kts